Theta_e
313 312 311 312 313 314 314 312 309 303 303 308 309 312 312 311 310 310 310 308 304 304 305 307 309 311 312 314 315 317 318 319 319 318 317 316 314 312
314 314 314 314 315 315 314 313 312 309 306 309 310 312 314 314 314 312 312 308 304 302 302 303 305 307 309 310 311 313 314 315 316 315 313 312 310 309
313 311 313 315 314 314 315 314 313 312 309 311 312 313 311 314 315 315 314 313 312 303 301 301 301 302 304 306 307 309 310 311 311 310 310 309 307 306
311 311 312 313 312 313 314 313 313 313 311 309 312 311 309 312 313 313 312 313 314 309 303 302 301 301 301 302 303 304 304 304 304 304 305 305 303 303
313 311 312 312 311 312 312 312 313 313 313 312 311 313 313 307 309 309 311 310 308 307 302 300 300 300 300 301 301 301 300 299 297 296 296 296 297 297
313 313 312 312 312 312 311 311 311 311 311 311 310 311 310 308 303 306 304 300 306 308 304 300 300 299 299 299 298 298 297 296 294 293 292 291 292 294
311 311 312 311 307 309 313 313 312 310 310 309 308 309 309 308 303 310 307 309 306 303 300 297 297 296 297 296 297 295 293 293 292 292 292 292 291 292
308 310 310 304 304 300 300 302 308 310 309 309 309 308 309 310 311 308 307 306 300 295 294 292 293 292 294 294 293 293 292 292 292 292 292 292 292 291
309 309 309 310 303 309 300 297 297 297 299 310 309 309 309 311 312 309 307 306 304 291 291 286 289 288 292 293 292 292 291 291 291 291 291 291 291 291
308 308 308 308 307 306 306 305 302 305 302 300 305 309 311 301 298 303 307 292 286 286 289 284 285 285 288 289 291 291 290 290 291 290 290 290 291 291
309 309 308 307 304 299 304 304 304 289 288 289 289 288 288 289 291 292 287 288 284 283 283 285 283 284 284 285 286 288 288 288 286 285 285 285 285 286
307 307 298 304 300 296 303 305 303 289 285 282 282 283 284 284 284 284 286 286 282 280 280 281 281 281 280 282 283 283 282 283 283 283 284 284 284 283
302 297 286 287 288 290 292 302 300 284 282 282 281 281 281 281 281 281 281 281 279 277 280 281 279 279 279 279 279 280 280 280 280 281 282 282 282 282
285 285 285 285 285 285 284 284 284 283 281 280 279 278 278 279 280 280 281 281 281 279 280 280 278 278 277 275 275 279 279 280 280 280 280 281 280 280
283 283 283 283 283 282 283 282 281 280 279 278 277 276 277 278 278 278 279 279 278 278 279 278 277 277 276 275 274 275 275 277 279 278 277 277 277 277
281 280 280 279 279 279 279 279 278 278 277 276 275 275 276 275 274 275 274 276 274 274 275 275 274 274 273 273 273 272 274 272 275 274 274 274 275 276
279 278 277 277 276 276 276 276 276 275 274 275 274 273 273 273 272 273 273 273 271 270 270 271 273 274 273 272 271 271 270 270 271 271 271 270 272 273
277 274 274 274 273 272 272 272 273 273 273 273 272 272 271 271 270 270 270 269 268 268 268 269 270 269 269 270 273 269 269 268 269 270 271 269 269 272
273 273 272 272 272 272 272 271 270 270 271 270 270 270 270 269 268 267 267 267 267 267 267 269 268 266 263 261 267 271 266 268 268 267 268 268 267 269
272 271 270 271 271 270 270 269 269 269 268 267 267 267 267 267 266 266 266 265 266 266 266 266 266 265 261 256 258 265 271 267 266 265 266 268 269 272
269 269 269 269 269 268 267 267 266 265 264 264 264 264 263 264 263 263 264 263 263 264 263 263 265 267 267 266 257 259 265 270 270 267 267 266 266 267
267 267 267 267 267 266 266 265 265 264 263 263 260 260 259 261 260 260 259 258 262 262 263 264 265 265 264 263 262 260 263 265 268 270 272 271 267 264
264 264 263 263 264 263 263 261 260 259 260 259 259 258 253 254 258 258 258 260 261 261 261 261 263 263 263 263 262 262 262 262 264 264 266 271 273 273
Wind_Speed
5 5 3 4 4 4 4 4 5 3 4 4 4 6 7 6 9 8 11 15 18 19 21 22 22 24 25 26 26 25 24 24 24 22 19 17 18 19
6 7 6 4 6 4 4 4 4 5 5 4 6 6 6 6 9 10 12 14 14 18 19 21 23 24 25 25 23 21 22 24 23 20 17 16 19 19
7 8 11 9 7 7 6 6 7 5 8 10 6 5 6 10 9 9 12 12 10 18 20 21 22 22 22 21 21 20 21 23 19 18 17 18 19 18
10 9 11 7 10 9 8 11 8 8 9 16 11 7 8 10 12 12 11 10 11 15 16 19 19 21 22 22 21 20 19 18 14 13 12 12 14 17
12 13 14 12 13 10 10 10 9 9 10 11 13 9 9 4 8 8 10 9 7 13 13 15 17 19 20 21 18 14 15 13 11 9 8 8 8 13
14 15 15 16 16 14 12 14 12 10 10 10 11 11 8 6 3 7 7 5 10 6 8 11 10 15 16 15 17 18 16 13 11 8 8 8 10 12
14 14 15 16 19 19 13 15 13 11 11 10 11 11 11 9 9 10 10 10 8 7 5 3 2 3 5 11 10 15 14 12 8 7 9 12 12 13
17 16 16 17 20 19 21 22 17 14 15 12 13 14 17 12 12 11 12 11 9 4 4 3 3 3 4 6 12 12 10 8 6 6 5 8 12 16
18 17 15 14 16 17 20 21 20 20 18 19 20 19 19 17 16 15 15 13 14 3 3 3 2 2 3 6 11 12 10 6 6 8 10 11 14 15
18 18 18 19 17 17 17 17 16 18 17 15 20 21 19 6 4 6 11 3 5 3 1 3 1 2 3 3 7 5 7 6 5 5 8 9 9 9
20 19 19 18 21 20 18 19 18 5 6 9 13 13 13 9 1 6 5 7 3 1 3 2 3 2 3 2 2 3 2 7 8 6 6 8 9 11
18 19 19 21 20 19 20 20 18 10 11 9 7 11 13 15 19 11 4 3 4 3 3 3 1 2 3 3 3 6 5 8 6 5 9 12 14 6
8 4 6 12 11 6 11 13 10 14 12 10 9 8 10 11 10 12 13 8 7 7 6 3 3 3 4 1 1 4 3 2 1 3 6 8 11 8
7 7 9 21 24 24 18 24 20 14 11 10 10 9 9 9 9 10 13 13 11 11 9 8 3 5 3 1 2 3 4 3 2 4 3 6 9 13
10 19 21 23 24 22 26 22 17 11 9 11 9 10 9 8 9 9 10 12 12 11 11 13 8 6 4 3 2 4 5 4 3 4 5 5 6 6
13 13 15 18 18 14 16 15 11 10 11 11 9 8 8 8 9 7 7 5 7 7 12 11 9 7 4 4 4 4 4 4 6 6 6 6 5 6
11 10 11 11 10 12 12 10 10 11 11 8 8 8 8 7 8 7 7 6 7 6 7 7 9 7 5 5 3 5 5 5 6 7 9 8 7 7
13 11 10 10 11 10 10 10 10 11 9 8 9 8 8 7 7 7 7 6 6 6 6 7 7 6 5 5 6 5 5 7 7 7 8 9 9 8
12 11 9 9 8 9 9 9 9 9 9 8 8 8 7 7 7 7 6 6 6 6 6 6 6 6 6 4 5 6 8 6 6 7 8 8 11 11
10 10 9 8 8 8 8 8 8 7 8 8 8 6 6 5 6 7 6 5 5 5 6 6 6 6 2 2 4 7 14 9 8 9 10 10 12 24
9 9 8 8 7 7 7 7 7 7 7 6 6 6 4 5 6 5 5 6 5 5 5 5 5 8 4 3 4 5 7 16 16 11 11 11 12 13
8 8 8 7 7 6 5 5 6 7 6 6 5 4 4 5 5 4 4 3 3 4 4 4 7 6 4 6 8 8 9 10 15 21 22 21 11 11
7 7 6 6 6 6 6 6 6 5 5 5 4 4 3 3 3 3 3 3 4 4 5 5 5 5 5 7 8 9 14 13 11 13 13 20 23 26
Wind_Direction
190 179 164 185 182 202 158 156 187 203 245 230 224 200 208 208 223 228 235 240 227 229 233 233 235 236 236 238 239 238 239 235 231 228 226 226 232 236
203 187 191 184 201 192 198 185 181 180 239 185 232 216 194 208 224 222 238 236 234 231 232 232 234 235 238 237 232 227 236 235 229 220 210 214 227 234
199 199 216 205 208 209 208 206 213 198 236 262 247 224 205 220 233 221 230 231 237 227 228 228 231 234 234 226 219 224 230 227 217 208 206 215 226 236
212 212 224 210 218 210 212 211 208 213 221 243 242 242 218 221 232 229 228 228 231 236 226 230 231 232 230 226 220 220 221 208 193 197 202 217 230 236
213 214 220 210 221 221 218 225 226 223 217 235 250 241 243 213 241 248 247 243 233 240 232 234 231 234 230 221 216 200 184 167 165 167 195 221 243 246
217 217 216 218 224 226 226 228 228 226 226 232 242 254 246 239 207 250 257 239 253 243 236 231 224 229 231 214 182 171 162 157 168 187 212 222 236 242
227 228 227 226 225 222 220 226 221 221 230 235 241 245 254 245 240 247 246 258 244 222 234 221 208 199 198 194 184 158 151 153 170 208 232 234 227 237
229 229 231 228 232 223 222 228 220 219 235 239 243 244 247 249 244 233 242 249 259 180 188 211 150 193 168 160 149 143 148 167 189 222 247 264 263 251
232 234 234 232 227 232 228 234 237 232 235 247 249 246 253 245 243 240 233 235 239 162 146 174 132 129 149 136 146 146 149 167 220 237 249 264 258 247
233 234 234 237 232 227 235 236 231 236 235 240 248 260 266 277 254 270 261 126 72 86 41 136 70 113 70 52 126 151 156 181 220 264 281 285 286 281
236 233 232 235 234 219 224 231 233 194 67 91 83 70 59 47 30 133 154 160 163 118 352 99 134 116 103 97 99 130 40 88 68 48 32 1 336 327
238 240 229 236 237 219 220 228 232 191 141 117 92 64 53 54 49 41 20 131 120 97 12 25 48 74 107 59 68 66 51 40 27 6 335 325 322 321
258 299 32 25 9 289 225 245 225 126 110 96 84 68 53 49 48 47 41 44 74 63 1 78 46 33 31 73 53 93 78 56 303 310 322 322 319 321
63 44 64 87 83 74 64 67 75 103 106 95 88 73 69 73 56 56 65 63 48 67 44 32 67 44 31 11 342 35 21 340 330 309 324 332 316 310
82 86 66 50 42 66 73 79 94 91 61 67 81 76 74 65 59 66 66 74 68 55 51 47 43 39 44 35 3 4 356 343 326 351 340 350 335 320
66 61 67 77 71 63 51 59 58 72 84 89 75 60 62 61 58 48 62 65 71 65 60 48 38 29 23 21 11 355 355 346 13 357 336 321 315 306
67 58 46 53 41 58 60 46 53 54 57 59 77 76 68 54 60 49 53 64 69 49 39 30 29 25 19 8 11 32 3 344 339 325 320 308 297 286
65 59 54 54 59 55 59 53 48 53 57 55 58 61 64 65 54 52 51 57 69 59 48 28 25 26 21 360 49 9 354 331 318 313 313 300 295 291
68 61 57 54 47 57 61 64 59 52 55 57 58 54 53 63 64 54 44 44 52 54 45 40 28 28 14 344 301 346 332 308 318 305 296 290 292 294
56 65 66 52 45 48 55 55 58 56 54 55 55 53 52 60 60 57 46 37 46 50 49 38 27 15 27 241 305 307 329 321 313 306 305 299 286 286
55 55 53 62 64 57 56 61 65 59 59 58 57 59 44 62 64 56 55 47 38 38 41 24 0 352 336 330 2 312 307 307 301 298 298 290 287 288
50 54 49 51 50 58 58 64 63 60 63 64 54 52 47 64 66 61 47 37 29 31 17 0 356 355 360 341 314 303 303 306 309 300 293 284 284 283
48 53 48 45 48 51 54 55 62 53 52 59 62 60 41 58 45 50 45 28 28 18 10 354 347 344 334 325 313 310 308 304 310 311 299 295 291 287